CW8306 Weather Reports


Display with metric or nautical units.
time (UTC)temp
F
wind
direction
speed
MPH
gust
MPH
rain 1hr
in
rain 24hr
in
rain mn
in
humidity
%
barometer
mb
20260505051452 32 208 0.0 0.0 0.00 0.00 0.00 73 1009.3
20260505050951 32 235 0.0 1.0 0.00 0.00 0.00 72 1009.3
20260505050449 32 232 0.0 0.0 0.00 0.00 0.00 72 1009.4
20260505041416 32 235 1.0 1.0 0.00 0.00 0.00 72 1009.2
20260505040913 32 266 1.0 1.0 0.00 0.00 0.00 72 1009.2
20260505040411 32 234 0.0 1.0 0.00 0.00 0.00 72 1009.2
20260505035907 32 230 1.0 1.0 0.00 0.00 0.00 71 1009.3
20260505035403 32 265 1.0 2.0 0.00 0.00 0.00 72 1009.1
20260505034901 32 216 0.0 1.0 0.00 0.00 0.00 72 1009.2
20260505034357 32 234 1.0 2.0 0.00 0.00 0.00 72 1009.4
20260505033855 32 223 0.0 1.0 0.00 0.00 0.00 72 1009.2
20260505033351 32 221 0.0 1.0 0.00 0.00 0.00 73 1009.2
20260505032850 32 220 0.0 1.0 0.00 0.00 0.00 73 1009.1
20260505032346 32 228 0.0 1.0 0.00 0.00 0.00 73 1009.2
20260505031843 32 211 0.0 0.0 0.00 0.00 0.00 73 1009.1
20260505031339 31 235 0.0 1.0 0.00 0.00 0.00 73 1009.0
20260505030837 31 213 0.0 0.0 0.00 0.00 0.00 73 1009.0
20260505030332 31 212 0.0 0.0 0.00 0.00 0.00 72 1009.2
20260505025828 31 198 0.0 0.0 0.00 0.00 0.00 71 1009.1
20260505025326 31 198 0.0 1.0 0.00 0.00 0.00 70 1008.9
20260505024824 31 213 0.0 0.0 0.00 0.00 0.00 69 1009.0
20260505024322 32 30 1.0 2.0 0.00 0.00 0.00 67 1009.1
20260505023819 32 53 1.0 2.0 0.00 0.00 0.00 66 1009.1
20260505023315 32 303 1.0 2.0 0.00 0.00 0.00 64 1008.9
20260505022813 32 236 2.0 3.0 0.00 0.00 0.00 63 1009.0
20260505022310 32 166 1.0 3.0 0.00 0.00 0.00 63 1008.7
20260505021807 32 221 1.0 6.0 0.00 0.00 0.00 63 1008.9
20260505021303 33 250 1.0 6.0 0.00 0.00 0.00 62 1008.7
20260505020759 33 103 2.0 5.0 0.00 0.00 0.00 63 1008.7
20260505020254 33 214 1.0 3.0 0.00 0.00 0.00 65 1008.7
20260505015752 33 46 4.0 6.0 0.00 0.00 0.00 66 1008.8
20260505015249 33 354 2.0 9.0 0.00 0.00 0.00 69 1008.4
20260505014746 33 18 3.0 3.0 0.00 0.00 0.00 70 1008.6
20260505014243 34 16 2.0 3.0 0.00 0.00 0.00 70 1008.5
20260505013739 34 174 0.0 7.0 0.00 0.00 0.00 70 1008.4
20260505013237 35 31 6.0 8.0 0.00 0.00 0.00 70 1008.7
20260505012735 35 54 4.0 6.0 0.00 0.00 0.00 69 1008.4
20260505012232 35 106 5.0 8.0 0.00 0.00 0.00 68 1008.5
20260505011728 35 279 3.0 5.0 0.00 0.00 0.00 66 1008.3
20260505011225 36 332 5.0 8.0 0.00 0.00 0.00 61 1008.2
20260505010721 36 340 5.0 9.0 0.00 0.00 0.00 60 1008.0
20260505010217 36 121 5.0 9.0 0.00 0.00 0.00 61 1008.0
20260505005714 37 253 3.0 7.0 0.00 0.00 0.00 61 1008.1
20260505005211 37 212 5.0 8.0 0.00 0.00 0.00 60 1007.6
20260505004708 37 107 4.0 10.0 0.00 0.00 0.00 59 1007.7
20260505004204 37 202 4.0 10.0 0.00 0.00 0.00 60 1007.6
20260505003702 37 4 4.0 7.0 0.00 0.00 0.00 61 1007.7
20260505003159 37 206 1.0 5.0 0.00 0.00 0.00 62 1007.7
20260505002655 37 314 2.0 6.0 0.00 0.00 0.00 62 1007.7
20260505002153 37 104 4.0 7.0 0.00 0.00 0.00 62 1007.7
20260505001650 37 30 3.0 3.0 0.00 0.00 0.00 61 1007.5
20260505001148 37 284 6.0 9.0 0.00 0.00 0.00 60 1007.5
20260505000644 37 218 3.0 6.0 0.00 0.00 0.00 60 1007.4
20260505000143 37 78 3.0 3.0 0.00 0.00 0.00 60 1007.6
20260504235638 37 100 4.0 6.0 0.00 0.00 0.00 60 1007.4
20260504235135 38 212 3.0 5.0 0.00 0.00 0.00 59 1007.6
20260504234633 39 3 7.0 9.0 0.00 0.00 0.00 58 1007.6
20260504234130 39 306 2.0 6.0 0.00 0.00 0.00 57 1007.5
20260504233625 39 342 2.0 6.0 0.00 0.00 0.00 59 1007.4
20260504233121 37 145 1.0 3.0 0.00 0.00 0.00 61 1007.5
20260504232620 38 28 3.0 6.0 0.00 0.00 0.00 62 1007.5
20260504232116 36 196 3.0 5.0 0.00 0.00 0.00 65 1007.7
20260504231613 36 307 2.0 6.0 0.00 0.00 0.00 66 1007.8
20260504231109 36 170 3.0 9.0 0.00 0.00 0.00 67 1007.6
20260504230605 36 282 3.0 10.0 0.00 0.00 0.00 67 1007.4
20260504230104 36 230 5.0 8.0 0.00 0.00 0.00 67 1007.5
20260504225602 37 314 5.0 7.0 0.00 0.00 0.00 66 1007.2
20260504225058 37 321 6.0 8.0 0.00 0.00 0.00 65 1007.5
20260504224555 37 15 3.0 7.0 0.00 0.00 0.00 65 1007.2
20260504224052 37 350 5.0 7.0 0.00 0.00 0.00 67 1007.2
20260504223549 36 257 2.0 10.0 0.00 0.00 0.00 67 1007.4
20260504223044 36 19 9.0 15.0 0.00 0.00 0.00 70 1006.8
20260504222542 36 120 3.0 7.0 0.00 0.00 0.00 72 1007.0
20260504222039 36 310 5.0 14.0 0.00 0.00 0.00 72 1007.0
20260504221536 36 305 8.0 9.0 0.00 0.00 0.00 74 1006.8
20260504221033 36 298 5.0 8.0 0.00 0.00 0.00 75 1006.7
20260504220529 36 323 5.0 9.0 0.00 0.00 0.00 76 1006.7
20260504220026 36 335 6.0 9.0 0.00 0.00 0.00 76 1006.6
20260504215522 36 312 4.0 7.0 0.00 0.00 0.00 74 1006.6
20260504215020 37 252 3.0 7.0 0.00 0.00 0.00 73 1006.4
20260504214516 37 320 3.0 7.0 0.00 0.00 0.00 73 1006.4
20260504214012 37 281 3.0 8.0 0.00 0.00 0.00 71 1006.2
20260504213509 38 208 4.0 6.0 0.00 0.00 0.00 68 1006.1
20260504213007 38 344 4.0 8.0 0.00 0.00 0.00 69 1006.1
20260504212502 38 263 3.0 5.0 0.00 0.00 0.00 70 1006.2
20260504212000 38 278 3.0 6.0 0.00 0.00 0.00 70 1006.1
20260504211456 38 234 4.0 7.0 0.00 0.00 0.00 66 1006.2
20260504210954 38 323 5.0 8.0 0.00 0.00 0.00 64 1005.9
20260504210450 39 40 2.0 6.0 0.00 0.00 0.00 64 1005.9
20260504205947 38 226 1.0 8.0 0.00 0.00 0.00 63 1005.9
20260504205444 39 350 4.0 7.0 0.00 0.00 0.00 63 1006.2
20260504204943 38 277 7.0 9.0 0.00 0.00 0.00 63 1005.7
20260504204441 38 324 6.0 14.0 0.00 0.00 0.00 64 1005.8
20260504203940 38 307 2.0 9.0 0.00 0.00 0.00 64 1005.8
20260504203437 38 311 8.0 9.0 0.00 0.00 0.00 64 1005.6
20260504202933 38 325 4.0 9.0 0.00 0.00 0.00 65 1005.7
20260504202430 39 322 6.0 10.0 0.00 0.00 0.00 63 1005.5
20260504201926 39 122 5.0 14.0 0.00 0.00 0.00 62 1005.6
20260504201424 39 66 4.0 9.0 0.00 0.00 0.00 62 1005.4
20260504200921 39 285 5.0 14.0 0.00 0.00 0.00 67 1005.4
20260504200418 38 295 5.0 8.0 0.00 0.00 0.00 70 1005.1
20260504195915 39 279 9.0 11.0 0.00 0.00 0.00 71 1005.4
20260504195410 39 337 6.0 13.0 0.00 0.00 0.00 72 1005.1
20260504194907 39 322 7.0 10.0 0.00 0.00 0.00 72 1005.1
20260504194403 38 343 7.0 14.0 0.00 0.00 0.00 72 1005.0
20260504193859 38 197 4.0 11.0 0.00 0.00 0.00 73 1004.9
20260504193356 39 58 4.0 10.0 0.00 0.00 0.00 74 1004.9
20260504192855 39 34 3.0 8.0 0.00 0.00 0.00 70 1004.7
20260504192352 39 333 4.0 8.0 0.00 0.00 0.00 70 1004.6
20260504191850 39 55 7.0 10.0 0.00 0.00 0.00 69 1004.5
20260504191348 39 306 6.0 9.0 0.00 0.00 0.00 69 1004.4
20260504190843 39 220 4.0 11.0 0.00 0.00 0.00 70 1004.1
20260504190339 39 245 4.0 10.0 0.00 0.00 0.00 67 1004.3
20260504185836 40 19 7.0 9.0 0.00 0.00 0.00 67 1004.4
20260504185333 40 28 5.0 13.0 0.00 0.00 0.00 67 1004.0
20260504184829 40 343 7.0 11.0 0.00 0.00 0.00 67 1004.1
20260504184325 40 27 5.0 11.0 0.00 0.00 0.00 69 1003.8
20260504183821 40 4 7.0 10.0 0.00 0.00 0.00 68 1003.8
20260504183319 41 55 4.0 10.0 0.00 0.00 0.00 68 1003.9
20260504182817 40 250 1.0 7.0 0.00 0.00 0.00 70 1003.6
20260504182314 40 248 3.0 13.0 0.00 0.00 0.00 72 1003.4
20260504181811 41 312 8.0 13.0 0.00 0.00 0.00 69 1003.5
20260504181308 40 326 5.0 7.0 0.00 0.00 0.00 70 1003.5
20260504180807 40 333 4.0 7.0 0.00 0.00 0.00 69 1003.2
20260504180305 40 62 7.0 11.0 0.00 0.00 0.00 70 1003.6
20260504175803 40 281 6.0 10.0 0.00 0.00 0.00 71 1003.3
20260504175259 39 103 4.0 7.0 0.00 0.00 0.00 75 1003.1
20260504174757 39 26 4.0 10.0 0.00 0.00 0.00 79 1003.1
20260504174255 39 227 3.0 13.0 0.00 0.00 0.00 76 1003.3
20260504173751 39 356 6.0 11.0 0.00 0.00 0.00 71 1002.8
20260504173248 40 286 6.0 8.0 0.00 0.00 0.00 67 1002.8
20260504172745 40 240 3.0 9.0 0.00 0.00 0.00 67 1002.4
20260504172241 40 333 3.0 10.0 0.00 0.00 0.00 67 1002.5
20260504171737 40 218 4.0 10.0 0.00 0.00 0.00 68 1002.4
20260504171235 39 337 3.0 7.0 0.00 0.00 0.00 69 1002.4
20260504170732 40 266 6.0 10.0 0.00 0.00 0.00 67 1002.7
20260504170229 40 301 6.0 8.0 0.00 0.00 0.00 66 1002.4
20260504160147 39 319 6.0 11.0 0.00 0.00 0.00 69 1001.7
20260504151115 38 246 6.0 13.0 0.00 0.00 0.00 72 1001.2
20260504150613 39 268 4.0 15.0 0.00 0.00 0.00 72 1001.2
20260504150109 39 331 7.0 16.0 0.00 0.00 0.00 71 1001.3
20260504141038 38 317 7.0 13.0 0.00 0.00 0.00 74 1000.6
20260504140534 38 311 3.0 13.0 0.00 0.00 0.00 76 1000.6
20260504130459 36 206 3.0 8.0 0.00 0.00 0.00 82 999.8
20260504110346 36 147 4.0 9.0 0.00 0.00 0.00 86 997.8
20260504100303 37 289 4.0 14.0 0.00 0.00 0.00 88 997.0
20260504081657 39 9 4.0 8.0 0.00 0.00 0.00 85 995.2
20260504081153 40 216 5.0 10.0 0.00 0.00 0.00 85 995.2
20260504080649 40 317 4.0 11.0 0.00 0.00 0.00 84 995.1
20260504080146 40 275 5.0 13.0 0.00 0.00 0.00 83 995.0
20260504070114 43 48 3.0 10.0 0.00 0.00 0.00 80 994.1